Location: ????????
(37.6846°N, 24.0673°E)
Time: 14:52:48
(UTC+00:00)

Cosmos 1536 - Pass Details

Date: 14 July 2020
Orbit: 539 x 559 km, 82.5° (Epoch: 04 August)

Event Time Altitude Azimuth Distance (km) Brightness Sun altitude
Exits shadow 00:27:20 52° 94° (E) 696 3.4 -24.5°
Drops below altitude 10° 00:31:17 10° 17° (NNE) 1,845 6.5 -24.1°
Sets 00:33:30 0° 13° (NNE) 2,742 7.6 -23.9°
